Total_Precipitation_Accumulation
0.13 0.13 0.11 0.13 0.10 0.05 0.01 0.00 0.00 0.00 0.00 0.00 0.01 0.00 0.00 0.00 0.01 0.04 0.07 0.05 0.05 0.09 0.17 0.33 0.43 0.45 0.54 0.56 0.50 0.46 0.46 0.46 0.48 0.52 0.53 0.54 0.53 0.52 0.54 0.54 0.53 0.60 0.67 0.70 0.72 0.66 0.61 0.59 0.59
0.13 0.16 0.17 0.17 0.08 0.02 0.01 0.00 0.00 0.00 0.00 0.00 0.01 0.01 0.00 0.01 0.01 0.03 0.06 0.05 0.05 0.10 0.17 0.22 0.37 0.43 0.54 0.57 0.52 0.50 0.47 0.47 0.50 0.54 0.54 0.55 0.59 0.59 0.55 0.53 0.58 0.63 0.72 0.78 0.72 0.64 0.63 0.62 0.59
0.21 0.23 0.21 0.17 0.06 0.01 0.00 0.00 0.00 0.00 0.00 0.00 0.01 0.01 0.01 0.01 0.01 0.02 0.03 0.04 0.06 0.09 0.15 0.24 0.38 0.44 0.54 0.59 0.61 0.59 0.56 0.55 0.56 0.57 0.53 0.56 0.60 0.61 0.58 0.57 0.61 0.64 0.67 0.68 0.67 0.64 0.67 0.64 0.55
0.32 0.35 0.27 0.15 0.03 0.00 0.00 0.00 0.00 0.00 0.00 0.00 0.00 0.01 0.02 0.01 0.01 0.02 0.03 0.04 0.04 0.09 0.15 0.26 0.42 0.53 0.59 0.61 0.67 0.66 0.64 0.66 0.67 0.63 0.61 0.65 0.68 0.67 0.62 0.58 0.59 0.60 0.64 0.65 0.60 0.60 0.63 0.64 0.55
0.44 0.42 0.30 0.12 0.02 0.00 0.00 0.00 0.01 0.01 0.00 0.00 0.01 0.01 0.02 0.02 0.01 0.02 0.04 0.05 0.05 0.10 0.17 0.27 0.48 0.62 0.63 0.64 0.68 0.72 0.75 0.80 0.80 0.78 0.77 0.77 0.77 0.76 0.75 0.71 0.63 0.57 0.57 0.58 0.58 0.58 0.59 0.62 0.57
0.57 0.48 0.27 0.08 0.02 0.01 0.00 0.01 0.01 0.01 0.01 0.01 0.01 0.02 0.03 0.04 0.04 0.05 0.08 0.11 0.12 0.14 0.21 0.33 0.60 0.71 0.67 0.68 0.75 0.79 0.80 0.84 0.85 0.87 0.87 0.84 0.80 0.79 0.84 0.80 0.69 0.58 0.49 0.46 0.47 0.48 0.54 0.55 0.53
0.55 0.43 0.21 0.07 0.03 0.01 0.01 0.01 0.01 0.01 0.01 0.01 0.01 0.03 0.04 0.08 0.08 0.08 0.11 0.17 0.22 0.23 0.28 0.40 0.59 0.74 0.79 0.78 0.78 0.78 0.82 0.84 0.84 0.87 0.89 0.86 0.79 0.79 0.78 0.76 0.69 0.60 0.52 0.47 0.44 0.42 0.44 0.46 0.48
0.56 0.51 0.26 0.11 0.06 0.03 0.02 0.02 0.02 0.02 0.01 0.01 0.02 0.03 0.03 0.06 0.10 0.13 0.19 0.26 0.30 0.35 0.41 0.50 0.64 0.73 0.76 0.81 0.80 0.77 0.77 0.79 0.80 0.81 0.83 0.77 0.73 0.72 0.71 0.65 0.60 0.56 0.56 0.54 0.47 0.43 0.43 0.38 0.37
0.70 0.70 0.31 0.11 0.08 0.05 0.03 0.03 0.03 0.03 0.02 0.02 0.02 0.03 0.04 0.06 0.14 0.23 0.33 0.44 0.48 0.52 0.60 0.66 0.76 0.84 0.88 0.87 0.82 0.83 0.83 0.82 0.80 0.76 0.76 0.74 0.73 0.71 0.66 0.59 0.55 0.54 0.54 0.51 0.48 0.43 0.43 0.38 0.32
0.81 0.70 0.29 0.10 0.07 0.07 0.05 0.05 0.05 0.06 0.05 0.04 0.04 0.05 0.08 0.13 0.23 0.28 0.29 0.39 0.46 0.51 0.60 0.68 0.83 0.89 0.97 0.94 0.94 0.98 0.88 0.83 0.79 0.70 0.65 0.69 0.71 0.70 0.63 0.60 0.56 0.54 0.56 0.55 0.54 0.49 0.43 0.37 0.30
0.64 0.48 0.21 0.11 0.10 0.11 0.11 0.09 0.08 0.09 0.09 0.05 0.05 0.07 0.12 0.20 0.27 0.31 0.30 0.35 0.42 0.51 0.61 0.71 0.83 0.95 1.02 1.03 1.02 1.02 0.94 0.87 0.82 0.76 0.75 0.80 0.80 0.74 0.72 0.68 0.63 0.62 0.60 0.66 0.67 0.68 0.56 0.50 0.45
0.49 0.32 0.21 0.15 0.12 0.14 0.16 0.14 0.12 0.11 0.08 0.05 0.05 0.08 0.15 0.21 0.24 0.29 0.35 0.41 0.53 0.65 0.71 0.81 0.94 1.09 1.14 1.12 1.06 1.00 0.93 0.86 0.84 0.79 0.79 0.85 0.87 0.79 0.73 0.70 0.63 0.62 0.63 0.66 0.73 0.75 0.66 0.62 0.55
0.46 0.29 0.22 0.20 0.18 0.17 0.18 0.16 0.14 0.12 0.08 0.08 0.12 0.12 0.17 0.20 0.24 0.32 0.42 0.49 0.57 0.67 0.76 0.88 1.01 1.15 1.23 1.28 1.22 1.08 0.96 0.85 0.82 0.83 0.78 0.75 0.77 0.76 0.68 0.60 0.54 0.52 0.53 0.56 0.60 0.63 0.62 0.60 0.58
0.44 0.33 0.26 0.24 0.25 0.22 0.20 0.18 0.15 0.12 0.10 0.16 0.19 0.19 0.19 0.20 0.23 0.36 0.47 0.53 0.57 0.67 0.76 0.87 1.04 1.22 1.34 1.33 1.34 1.27 1.16 1.02 0.95 0.90 0.84 0.77 0.72 0.69 0.65 0.57 0.48 0.44 0.42 0.41 0.42 0.42 0.45 0.46 0.46
0.48 0.47 0.42 0.33 0.30 0.26 0.28 0.24 0.14 0.09 0.14 0.22 0.25 0.27 0.26 0.26 0.27 0.34 0.46 0.54 0.56 0.66 0.82 0.92 1.09 1.30 1.45 1.46 1.40 1.40 1.39 1.29 1.16 1.04 0.95 0.86 0.78 0.72 0.69 0.68 0.63 0.58 0.52 0.49 0.46 0.41 0.39 0.38 0.39
0.74 0.78 0.69 0.42 0.34 0.33 0.44 0.32 0.11 0.11 0.20 0.25 0.28 0.33 0.32 0.31 0.31 0.33 0.46 0.58 0.66 0.74 0.85 0.97 1.10 1.28 1.39 1.54 1.59 1.50 1.49 1.43 1.28 1.13 1.06 0.96 0.84 0.75 0.75 0.73 0.67 0.66 0.68 0.65 0.62 0.56 0.51 0.44 0.39
1.14 0.99 0.65 0.41 0.37 0.40 0.47 0.31 0.13 0.17 0.24 0.29 0.31 0.32 0.37 0.39 0.39 0.40 0.46 0.56 0.69 0.77 0.84 0.92 1.03 1.19 1.33 1.50 1.69 1.73 1.69 1.57 1.40 1.23 1.12 1.07 0.97 0.80 0.73 0.73 0.68 0.64 0.66 0.66 0.68 0.66 0.63 0.59 0.53
0.99 0.71 0.53 0.40 0.35 0.42 0.42 0.29 0.18 0.22 0.28 0.29 0.29 0.33 0.40 0.40 0.35 0.40 0.48 0.59 0.74 0.85 0.91 0.97 1.07 1.19 1.37 1.58 1.71 1.81 1.81 1.73 1.62 1.45 1.27 1.21 1.14 1.00 0.84 0.77 0.74 0.72 0.71 0.67 0.63 0.63 0.65 0.63 0.60
0.69 0.58 0.51 0.38 0.31 0.41 0.38 0.26 0.20 0.23 0.27 0.29 0.30 0.34 0.37 0.38 0.39 0.47 0.58 0.70 0.82 0.90 0.95 0.99 1.04 1.12 1.29 1.45 1.52 1.49 1.59 1.60 1.59 1.56 1.47 1.37 1.31 1.20 1.07 0.93 0.85 0.85 0.80 0.74 0.65 0.60 0.60 0.60 0.57
0.78 0.73 0.55 0.41 0.35 0.43 0.38 0.26 0.20 0.20 0.25 0.27 0.30 0.33 0.35 0.38 0.45 0.51 0.64 0.78 0.83 0.84 0.93 0.99 0.99 1.02 1.07 1.12 1.28 1.35 1.38 1.45 1.49 1.52 1.55 1.52 1.43 1.29 1.19 1.08 0.95 0.85 0.83 0.79 0.74 0.66 0.61 0.57 0.51
0.82 0.73 0.57 0.51 0.50 0.54 0.52 0.46 0.26 0.22 0.23 0.24 0.29 0.30 0.32 0.34 0.38 0.41 0.54 0.77 0.86 0.85 0.90 0.97 0.99 0.98 1.05 1.13 1.30 1.41 1.53 1.55 1.50 1.44 1.45 1.49 1.46 1.37 1.25 1.14 1.06 0.99 0.90 0.84 0.82 0.77 0.70 0.64 0.56
0.83 0.55 0.52 0.56 0.78 0.96 0.77 0.83 0.38 0.25 0.25 0.24 0.28 0.31 0.30 0.33 0.35 0.37 0.45 0.67 0.85 0.84 0.93 1.03 1.09 1.11 1.11 1.17 1.27 1.23 1.21 1.28 1.23 1.24 1.25 1.35 1.46 1.42 1.32 1.29 1.24 1.12 1.01 0.89 0.82 0.83 0.82 0.80 0.75
0.62 0.50 0.60 0.70 0.90 1.07 0.80 0.83 0.45 0.25 0.29 0.29 0.30 0.33 0.32 0.34 0.35 0.33 0.38 0.58 0.79 0.87 0.94 1.09 1.13 1.20 1.23 1.19 1.23 1.22 1.13 1.10 1.18 1.30 1.35 1.32 1.36 1.44 1.37 1.27 1.24 1.19 1.10 1.03 0.96 0.86 0.85 0.87 0.85
0.59 0.77 1.02 1.13 1.50 1.66 0.76 0.66 0.52 0.36 0.37 0.34 0.32 0.35 0.37 0.37 0.38 0.37 0.40 0.55 0.70 0.80 0.93 1.02 1.15 1.21 1.31 1.26 1.23 1.19 1.10 1.04 1.09 1.17 1.33 1.40 1.39 1.41 1.43 1.34 1.27 1.17 1.08 1.06 1.08 1.01 0.91 0.87 0.87
0.99 1.48 2.30 2.60 2.58 1.57 0.44 0.44 0.52 0.38 0.34 0.36 0.34 0.33 0.36 0.39 0.42 0.40 0.39 0.48 0.59 0.70 0.84 0.95 1.04 1.21 1.29 1.29 1.23 1.17 1.10 1.03 1.02 1.05 1.13 1.22 1.30 1.35 1.37 1.36 1.30 1.19 1.08 0.97 1.00 1.05 1.01 0.95 0.95
1.09 1.23 1.64 1.77 1.36 0.66 0.34 0.40 0.41 0.31 0.27 0.27 0.27 0.28 0.27 0.33 0.43 0.43 0.37 0.41 0.50 0.61 0.74 0.87 0.96 1.13 1.26 1.26 1.25 1.21 1.14 1.06 1.01 1.02 1.03 1.09 1.07 1.12 1.23 1.33 1.36 1.22 1.06 0.98 0.95 0.97 0.98 1.00 1.01
1.00 1.00 0.82 1.04 0.77 0.51 0.45 0.36 0.30 0.23 0.19 0.20 0.25 0.30 0.30 0.31 0.37 0.41 0.37 0.41 0.48 0.58 0.67 0.79 0.91 1.05 1.19 1.27 1.31 1.26 1.19 1.14 1.05 1.03 1.03 1.09 1.06 0.99 1.05 1.18 1.31 1.39 1.30 1.15 1.06 1.03 0.97 0.98 1.03
0.88 0.94 1.09 1.45 1.21 0.71 0.41 0.30 0.34 0.29 0.23 0.21 0.26 0.32 0.32 0.28 0.33 0.35 0.34 0.39 0.48 0.57 0.63 0.72 0.86 0.96 1.08 1.19 1.27 1.30 1.28 1.25 1.18 1.13 1.06 1.02 1.06 1.06 1.02 1.03 1.10 1.20 1.31 1.31 1.23 1.17 1.08 1.04 1.03
0.95 1.18 1.42 1.41 1.07 0.86 0.56 0.42 0.39 0.31 0.23 0.22 0.23 0.29 0.30 0.28 0.33 0.34 0.33 0.38 0.46 0.57 0.61 0.65 0.76 0.91 1.04 1.12 1.17 1.25 1.32 1.26 1.24 1.23 1.16 1.07 1.02 1.08 1.09 1.08 1.12 1.16 1.20 1.24 1.29 1.27 1.23 1.21 1.17
0.83 1.01 1.17 1.40 1.09 0.66 0.62 0.49 0.33 0.24 0.20 0.19 0.20 0.26 0.30 0.30 0.32 0.31 0.33 0.38 0.43 0.51 0.58 0.63 0.70 0.79 0.95 1.08 1.15 1.20 1.28 1.32 1.27 1.28 1.26 1.14 1.06 1.05 1.10 1.12 1.14 1.21 1.25 1.25 1.29 1.30 1.29 1.34 1.31